Triuchirapalli, India

2:46 AM IST on November 23, 2017 (GMT +0530)
Tiruchirappalli

Weather History for VOTR - April, 2013

Change the Weather History Date:

Sunday, April 28, 2013

  Actual Average Record
Temperature  
Mean Temperature 94 °F -  
Max Temperature 106 °F 95 °F 106 °F (2013)
Min Temperature 82 °F 81 °F 77 °F (2015)
Cooling Degree Days 29    
Growing Degree Days 44 (Base 50)    
Moisture  
Dew Point 72 °F    
Average Humidity 53    
Maximum Humidity 79    
Minimum Humidity 21    
Precipitation  
Precipitation 0.00 in - - ()
Sea Level Pressure  
Sea Level Pressure 29.74 in    
Wind  
Wind Speed 6 mph ()    
Max Wind Speed 14 mph    
Max Gust Speed -    
Visibility 3.6 miles    
Events      
Averages and records for this station are not official NWS values.
T = Trace of Precipitation, MM = Missing Value Source: Averaged Metar Reports

Daily Weather History Graph

Daily Weather History Graph

Search for Another Location

Airport or City:

Trip Planner

Search our weather history database for the weather conditions in past years. The results will help you decide how hot, cold, wet, or windy it might be!

Date:

Astronomy

Apr. 28, 2013 Rise Set
Actual Time 5:58 AM IST 6:27 PM IST
Civil Twilight 5:36 AM IST 6:49 PM IST
Nautical Twilight 5:10 AM IST 7:14 PM IST
Astronomical Twilight 4:45 AM IST 7:40 PM IST
Moon 9:10 PM IST (4/28) 8:05 AM IST (4/28)
Length of Visible Light 13h 12m
Length of Day
12h 29m
Waning Gibbous, 92% of the Moon is Illuminated
Apr 28
Waning Gibbous
May 2
Last Quarter
May 10
New
May 18
First Quarter
May 25
Full

Hourly Weather History & Observations

Time (IST) Temp. Heat Index Dew Point Humidity Pressure Visibility Wind Dir Wind Speed Gust Speed Precip Events Conditions
12:10 AM 86.0 °F 95.1 °F 75.2 °F 70% 29.83 in 3.7 mi South 5.8 mph - N/A   Partly Cloudy
12:40 AM 84.2 °F 92.3 °F 75.2 °F 74% 29.80 in 3.7 mi SSW 4.6 mph - N/A   Partly Cloudy
1:10 AM 84.2 °F 92.3 °F 75.2 °F 74% 29.80 in 3.7 mi SSW 5.8 mph - N/A   Partly Cloudy
1:40 AM 84.2 °F 92.3 °F 75.2 °F 74% 29.80 in 3.7 mi SSW 5.8 mph - N/A   Partly Cloudy
2:10 AM 84.2 °F 92.3 °F 75.2 °F 74% 29.80 in 3.7 mi SW 3.5 mph - N/A   Unknown
2:30 AM 84 °F - 74 °F 66% 29.78 in 2 mi SW 4.6 mph - -   Haze
2:40 AM 84.2 °F 92.3 °F 75.2 °F 74% 29.77 in 3.7 mi SW 4.6 mph - N/A   Unknown
3:10 AM 84.2 °F 92.3 °F 75.2 °F 74% 29.77 in 3.7 mi SSW 3.5 mph - N/A   Unknown
3:40 AM 84.2 °F 92.3 °F 75.2 °F 74% 29.77 in 3.7 mi SW 3.5 mph - N/A   Partly Cloudy
4:10 AM 84.2 °F 92.3 °F 75.2 °F 74% - 3.7 mi SSW 4.6 mph - N/A   Scattered Clouds
4:40 AM 82.4 °F 89.5 °F 75.2 °F 79% 29.77 in 3.7 mi SW 4.6 mph - N/A   Scattered Clouds
5:10 AM 82.4 °F 89.5 °F 75.2 °F 79% 29.77 in 3.7 mi WSW 3.5 mph - N/A   Partly Cloudy
5:30 AM 83 °F - 74 °F 69% 29.77 in 2 mi WSW 3.5 mph - -   Haze
6:10 AM 82.4 °F 89.5 °F 75.2 °F 79% 29.77 in 2.5 mi WSW 3.5 mph - N/A   Haze
6:40 AM 84.2 °F 92.3 °F 75.2 °F 74% 29.77 in 2.5 mi West 3.5 mph - N/A   Haze
7:40 AM 87.8 °F 95.6 °F 73.4 °F 62% 29.80 in 1.9 mi WNW 6.9 mph - N/A   Haze
8:10 AM 89.6 °F 98.2 °F 73.4 °F 59% 29.80 in 2.5 mi WNW 10.4 mph - N/A   Haze
8:30 AM 90 °F - 72 °F 47% 29.81 in 2 mi WNW 9.2 mph - -   Haze
8:40 AM 91.4 °F 100.1 °F 73.4 °F 55% 29.80 in 2.5 mi WNW 10.4 mph - N/A   Haze
9:40 AM 95.0 °F 104.5 °F 73.4 °F 49% 29.80 in 3.7 mi WNW 12.7 mph - N/A   Unknown
10:10 AM 95.0 °F 104.5 °F 73.4 °F 49% 29.80 in 3.7 mi West 12.7 mph - N/A   Unknown
10:40 AM 96.8 °F 105.1 °F 71.6 °F 44% 29.80 in 3.7 mi WNW 10.4 mph - N/A   Unknown
11:10 AM 96.8 °F 105.1 °F 71.6 °F 44% 29.77 in 3.7 mi West 9.2 mph - N/A   Partly Cloudy
11:30 AM 99 °F - 69 °F 29% 29.76 in 2 mi WNW 10.4 mph - -   Haze
11:40 AM 98.6 °F 107.7 °F 71.6 °F 42% 29.77 in 3.7 mi WNW 10.4 mph - N/A   Partly Cloudy
12:10 PM 100.4 °F 109.3 °F 71.6 °F 39% 29.74 in 3.7 mi West 6.9 mph - N/A   Partly Cloudy
12:40 PM 102.2 °F 110.0 °F 69.8 °F 35% 29.74 in 3.7 mi NW 10.4 mph - N/A   Partly Cloudy
1:10 PM 102.2 °F 110.0 °F 69.8 °F 35% 29.71 in 5.0 mi WNW 6.9 mph - N/A   Partly Cloudy
1:40 PM 104.0 °F 112.2 °F 69.8 °F 33% 29.68 in 5.0 mi NNE 4.6 mph - N/A   Partly Cloudy
2:10 PM 104.0 °F 112.2 °F 69.8 °F 33% 29.68 in 5.0 mi ESE 5.8 mph - N/A   Partly Cloudy
2:30 PM 105 °F - 67 °F 21% 29.66 in 2 mi SE 5.8 mph - -   Haze
2:40 PM 105.8 °F 114.2 °F 69.8 °F 31% 29.65 in 5.0 mi ESE 9.2 mph - N/A   Scattered Clouds
3:10 PM 104.0 °F 112.2 °F 69.8 °F 33% 29.65 in 5.0 mi ENE 9.2 mph - N/A   Scattered Clouds
3:40 PM 104.0 °F 112.2 °F 69.8 °F 33% 29.62 in 5.0 mi SE 4.6 mph - N/A   Scattered Clouds
4:10 PM 102.2 °F 110.0 °F 69.8 °F 35% 29.62 in 5.0 mi ENE 9.2 mph - N/A   Scattered Clouds
4:40 PM 100.4 °F 109.3 °F 71.6 °F 39% 29.62 in 5.0 mi ESE 6.9 mph - N/A   Scattered Clouds
5:10 PM 98.6 °F 107.7 °F 71.6 °F 42% 29.62 in 5.0 mi ENE 2.3 mph - N/A   Scattered Clouds
5:30 PM 100 °F - 73 °F 32% 29.63 in 2 mi SE 11.5 mph - -   Haze
5:40 PM 98.6 °F 109.2 °F 73.4 °F 44% 29.62 in 5.0 mi SE 11.5 mph - N/A   Scattered Clouds
6:10 PM 98.6 °F 109.2 °F 73.4 °F 44% 29.65 in 4.3 mi SSE 13.8 mph - N/A   Scattered Clouds
6:40 PM 98.6 °F 109.2 °F 73.4 °F 44% 29.65 in 3.7 mi SSE 13.8 mph - N/A   Scattered Clouds
7:10 PM 96.8 °F 107.3 °F 73.4 °F 47% 29.68 in 3.7 mi SSE 13.8 mph - N/A   Scattered Clouds
7:40 PM 95.0 °F 104.5 °F 73.4 °F 49% 29.71 in 3.7 mi SE 13.8 mph - N/A   Partly Cloudy
8:10 PM 93.2 °F 102.4 °F 73.4 °F 52% 29.74 in 3.7 mi South 12.7 mph - N/A   Partly Cloudy
8:30 PM 92 °F - 71 °F 41% 29.75 in 2 mi South 12.7 mph - -   Haze
8:40 PM 91.4 °F 98.4 °F 71.6 °F 52% 29.77 in 3.7 mi South 9.2 mph - N/A   Partly Cloudy
9:10 PM 89.6 °F 96.2 °F 71.6 °F 55% 29.77 in 3.7 mi East 8.1 mph - N/A   Partly Cloudy
9:40 PM 89.6 °F 94.7 °F 69.8 °F 52% 29.77 in 3.7 mi South 5.8 mph - N/A   Partly Cloudy
10:10 PM 87.8 °F 91.4 °F 68.0 °F 52% 29.80 in 3.7 mi SW 5.8 mph - N/A   Partly Cloudy
10:40 PM 86.0 °F 90.4 °F 69.8 °F 58% 29.80 in 3.7 mi SSW 5.8 mph - N/A   Partly Cloudy
11:10 PM 84.2 °F 89.6 °F 71.6 °F 66% 29.77 in 3.7 mi SSW 5.8 mph - N/A   Partly Cloudy
11:30 PM 89 °F - 73 °F 50% 29.78 in 2 mi South 4.6 mph - -   Partly Cloudy
11:40 PM 87.8 °F 95.6 °F 73.4 °F 62% 29.77 in 3.7 mi SSW 4.6 mph - N/A   Partly Cloudy